Location: Unspecified
(0.0000°N, 0.0000°E)
Time: 12:06:02
(UTC+02:00)

Tiangong 1 - Visible Passes

Search period start: 19 April 2014 00:00
Search period end: 29 April 2014 00:00
Orbit: 356 x 372 km, 42.8° (Epoch: 19 April)

Date Brightness Start Highest point End Pass type
(mag) Time Alt. Az. Time Alt. Az. Time Alt. Az.
19 Apr 1.3 20:37:08 10° NW 20:40:09 65° SW 20:43:06 11° SE visible
20 Apr 4.1 21:09:35 10° SW 21:10:00 10° SW 21:10:25 10° SW visible
21 Apr 3.7 06:58:48 10° S 07:00:41 16° SE 07:02:35 10° E visible
22 Apr 0.9 07:27:25 10° SW 07:30:22 67° NW 07:33:18 10° NE visible
23 Apr 2.9 06:24:15 26° ESE 06:24:15 26° ESE 06:26:25 10° ENE visible
24 Apr 1.7 06:53:07 33° NW 06:53:18 33° NW 06:56:01 10° NNE visible
